NOAA 16 DEB, 41512

Orbit data source: Space-Track

NOAA 16 DEB, 41512 is space debris in SSO originally from a launch on Thu, 21 Sep 2000 UTC launched from the Air Force Western Test Range (AFWTR). Debris objects in space refer to the collection of defunct objects orbiting the Earth. Examples of debris include non-operational satellites, rocket bodies, and fragments generated from explosions, collisions, or faulty payload assembly.

Loading next visibility...
Identifier
41512, 2000-055ML
Orbit
SSO
Country
Flag of USUS
Related business
Manufacturer
Unknown
Mission
Spacecraft
Bus & Motor
Unknown
Mass
Unknown
Launch date (UTC)
2000-09-21 (25 years ago)
Launch vehicle
Unknown
Launch site
Air Force Western Test Range (AFWTR)
Object type
Payload
Rocket body
Debris
Shape & HBR
Unknown shape, 0.1 m
Radar Cross Section
Small (<0.1 m²)

Expand to show TLE details & history
Last TLE update: 1 day ago

TLE from 1 day ago
0 NOAA 16 DEB
1 41512U 00055ML  26073.50649201  .00010651  00000-0  24830-2 0  9990
2 41512  98.9683 277.7731 0030176 335.6801  24.2968 14.54698731520573
Epoch: 2026-03-14T12:09Z
TLE epoch observation values (Epoch: 2026-03-14T12:09:20.909Z)
Latitude
-0.00003°
Longitude
-76.69071°
Altitude
693.808 km
Speed
7.52 km/s
True Right ascension
18h 31m 05s
True Declination
0° 00' 00"
Sunlit
Object was in daylight at epoch
Visualization orbit readout
Latitude
Unknown
Longitude
Unknown
Altitude
Unknown
Speed
Unknown
Apparent Right ascension
Unknown
Apparent Declination
Unknown
Sunlit
N/A
Visualization observer readout
Local Sidereal Time
17:09:27
Azimuth
Unknown
Elevation
Unknown
Doppler factor
Unknown
Orbital elements
Apogee altitude
728.85 km
Perigee altitude
686.087 km
Semi-major axis
7,085.605 km
Eccentricity
0.00302
Inclination
98.9683°
RAAN
277.7731°
Arg. of periapsis
335.6801°
True anomaly
24.43957°
Mean anomaly
24.2968°
Eccentric anomaly
24.36814°
Mean motion
3.63896 °/min
Orbital period
98.93 mins
BSTAR
0.002483
Loading maneuver chart data...
Computing Atmospheric mass density...
Loading historical data...
Loading historical data...
Loading historical data...
Loading historical data...
Loading historical data...
Loading historical data...
Loading historical data...

Documentation

Showing up to 5 results
|